Change the Weather History Date:

Monday, August 5, 2013

  Actual Average Record
Temperature  
Mean Temperature 77 °F 80 °F  
Max Temperature 92 °F 95 °F 113 °F (1997)
Min Temperature 61 °F 65 °F 47 °F (1950)
Degree Days  
Heating Degree Days 0 0  
Month to date heating degree days 0 0  
Since 1 June heating degree days 0 2  
Since 1 July heating degree days 0 0  
Cooling Degree Days 12 15  
Month to date cooling degree days 47 75  
Year to date cooling degree days 1064 887  
Since 1 June cooling degree days 778 710  
Growing Degree Days 26 (Base 50)    
Moisture  
Dew Point 52 °F    
Average Humidity 50    
Maximum Humidity 84    
Minimum Humidity 15    
Precipitation  
Precipitation 0.00 in 0.00 in 0.01 in (1961)
Month to date precipitation 0.00 0.03  
Year to date precipitation 2.31 9.29  
Since 1 July precipitation 0.10 0.10  
Snow  
Snow 0.00 in - - ()
Month to date snowfall 0.0  
Year to date snowfall 0.0  
Since 1 July snowfall 0.0  
Snow Depth 0.00 in    
Sea Level Pressure  
Sea Level Pressure 29.92 in    
Wind  
Wind Speed 3 mph (West)    
Max Wind Speed 15 mph    
Max Gust Speed 21 mph    
Visibility 9 miles    
Events      
T = Trace of Precipitation, MM = Missing Value Source: NWS Daily Summary

Daily Weather History Graph

Daily Weather History Graph

Search for Another Location

Airport or City:

Trip Planner

Search our weather history database for the weather conditions in past years. The results will help you decide how hot, cold, wet, or windy it might be!

Date:

Astronomy

Aug. 05, 2013 Rise Set
Actual Time 6:04 AM PDT 7:46 PM PDT
Civil Twilight 5:37 AM PDT 8:13 PM PDT
Nautical Twilight 5:04 AM PDT 8:46 PM PDT
Astronomical Twilight 4:30 AM PDT 9:20 PM PDT
Moon 5:03 AM PDT (8/5) 6:51 PM PDT (8/5)
Length of Visible Light 14h 36m
Length of Day
13h 42m
Waning Crescent, 1% of the Moon is Illuminated
Aug 5
Waning Crescent
Aug 6
New
Aug 14
First Quarter
Aug 20
Full
Aug 28
Last Quarter

Hourly Weather History & Observations

Time (PDT) Temp. Dew Point Humidity Pressure Visibility Wind Dir Wind Speed Gust Speed Precip Events Conditions
12:53 AM 66.9 °F 57.0 °F 70% 29.93 in 10.0 mi Calm Calm - N/A   Clear
1:53 AM 64.9 °F 57.0 °F 75% 29.92 in 10.0 mi Calm Calm - N/A   Clear
2:53 AM 64.0 °F 57.0 °F 78% 29.92 in 9.0 mi Calm Calm - N/A   Clear
3:53 AM 63.0 °F 57.0 °F 81% 29.92 in 8.0 mi Calm Calm - N/A   Clear
4:53 AM 62.1 °F 55.9 °F 80% 29.92 in 7.0 mi Calm Calm - N/A   Clear
5:53 AM 61.0 °F 55.9 °F 83% 29.94 in 7.0 mi Calm Calm - N/A   Clear
6:53 AM 61.0 °F 55.0 °F 81% 29.95 in 7.0 mi Calm Calm - N/A   Clear
7:03 AM 60.8 °F 55.4 °F 82% 30.00 in 5.0 mi Calm Calm - N/A   Haze
7:53 AM 63.0 °F 57.0 °F 81% 29.96 in 5.0 mi Calm Calm - N/A   Haze
8:53 AM 66.9 °F 57.0 °F 70% 29.96 in 6.0 mi Calm Calm - N/A   Haze
9:53 AM 72.0 °F 57.0 °F 59% 29.96 in 6.0 mi Calm Calm - N/A   Haze
10:53 AM 78.1 °F 55.0 °F 45% 29.94 in 9.0 mi Calm Calm - N/A   Clear
11:53 AM 84.0 °F 48.9 °F 29% 29.93 in 10.0 mi Variable 3.5 mph - N/A   Clear
12:53 PM 88.0 °F 48.0 °F 25% 29.92 in 10.0 mi West 6.9 mph - N/A   Scattered Clouds
1:53 PM 90.0 °F 52.0 °F 27% 29.90 in 10.0 mi West 9.2 mph 17.3 mph N/A   Partly Cloudy
2:53 PM 91.0 °F 46.0 °F 21% 29.88 in 10.0 mi WNW 10.4 mph 19.6 mph N/A   Clear
3:53 PM 91.0 °F 37.9 °F 15% 29.87 in 10.0 mi Variable 6.9 mph 19.6 mph N/A   Clear
4:53 PM 89.1 °F 43.0 °F 20% 29.86 in 10.0 mi West 10.4 mph 18.4 mph N/A   Partly Cloudy
5:53 PM 87.1 °F 36.0 °F 16% 29.86 in 10.0 mi West 13.8 mph 21.9 mph N/A   Partly Cloudy
6:53 PM 82.9 °F 42.1 °F 24% 29.87 in 10.0 mi West 6.9 mph 16.1 mph N/A   Partly Cloudy
7:53 PM 75.9 °F 48.9 °F 38% 29.89 in 10.0 mi West 8.1 mph - N/A   Clear
8:53 PM 73.0 °F 53.1 °F 49% 29.91 in 10.0 mi West 5.8 mph - N/A   Clear
9:53 PM 70.0 °F 55.0 °F 59% 29.93 in 10.0 mi West 3.5 mph - N/A   Clear
10:53 PM 66.9 °F 55.0 °F 66% 29.94 in 10.0 mi West 4.6 mph - N/A   Clear
11:53 PM 64.9 °F 55.0 °F 70% 29.94 in 10.0 mi Calm Calm - N/A   Clear